Fryeburg, ME

8:05 PM EDT on October 22, 2017 (GMT -0400)
Eastern Slopes Regional

Weather History for KIZG - May, 2014

Change the Weather History Date:

Thursday, May 1, 2014

  Actual Average Record
Temperature  
Mean Temperature 48 °F -  
Max Temperature 61 °F 62 °F 86 °F (2001)
Min Temperature 37 °F 34 °F 24 °F (2008)
Degree Days  
Heating Degree Days 16    
Moisture  
Dew Point 40 °F    
Average Humidity 89    
Maximum Humidity 100    
Minimum Humidity 64    
Precipitation  
Precipitation 0.66 in - - ()
Sea Level Pressure  
Sea Level Pressure 29.93 in    
Wind  
Wind Speed 3 mph (North)    
Max Wind Speed 7 mph    
Max Gust Speed -    
Visibility 5 miles    
Events Rain    
Averages and records for this station are not official NWS values.
T = Trace of Precipitation, MM = Missing Value Source: NWS Daily Summary

Daily Weather History Graph

Daily Weather History Graph

Search for Another Location

Airport or City:

Trip Planner

Search our weather history database for the weather conditions in past years. The results will help you decide how hot, cold, wet, or windy it might be!

Date:

Astronomy

May. 01, 2014 Rise Set
Actual Time 5:35 AM EDT 7:47 PM EDT
Civil Twilight 5:03 AM EDT 8:18 PM EDT
Nautical Twilight 4:24 AM EDT 8:58 PM EDT
Astronomical Twilight 3:41 AM EDT 9:41 PM EDT
Moon 7:18 AM EDT (5/1) 10:19 PM EDT (5/1)
Length of Visible Light 15h 14m
Length of Day
14h 11m
Waxing Crescent, 6% of the Moon is Illuminated
May 1
Waxing Crescent
May 6
First Quarter
May 14
Full
May 21
Last Quarter
May 28
New

Hourly Weather History & Observations

Time (EDT) Temp. Windchill Dew Point Humidity Pressure Visibility Wind Dir Wind Speed Gust Speed Precip Events Conditions
12:14 AM 37.9 °F 35.5 °F 36.0 °F 93% 30.24 in 5.0 mi ENE 3.5 mph - 0.03 in Rain Light Rain
12:35 AM 37.9 °F 35.5 °F 36.0 °F 93% 30.23 in 6.0 mi NE 3.5 mph - 0.05 in Rain Light Rain
12:54 AM 37.9 °F 35.5 °F 36.0 °F 93% 30.24 in 6.0 mi NNE 3.5 mph - 0.05 in Rain Light Rain
1:10 AM 37.9 °F - 36.0 °F 93% 30.21 in 2.5 mi Calm Calm - 0.03 in Rain Rain
1:33 AM 37.9 °F - 37.0 °F 97% 30.20 in 3.0 mi Calm Calm - 0.04 in Rain Light Rain
1:50 AM 37.4 °F - 37.4 °F 100% 30.18 in 2.5 mi Calm Calm - 0.06 in Rain Light Rain
1:54 AM 37.9 °F - 37.0 °F 97% 30.20 in 2.5 mi Calm Calm - 0.06 in Rain Light Rain
2:00 AM 37.9 °F 35.5 °F 37.0 °F 97% 30.18 in 3.0 mi NNW 3.5 mph - 0.01 in Rain Light Rain
2:17 AM 37.9 °F 34.4 °F 36.0 °F 93% 30.17 in 3.0 mi NNW 4.6 mph - 0.02 in Rain Light Rain
2:43 AM 37.9 °F 35.5 °F 36.0 °F 93% 30.16 in 4.0 mi North 3.5 mph - 0.03 in Rain Light Rain
2:54 AM 37.9 °F 35.5 °F 36.0 °F 93% 30.17 in 5.0 mi North 3.5 mph - 0.03 in Rain Light Rain
3:06 AM 37.9 °F 35.5 °F 36.0 °F 93% 30.14 in 4.0 mi North 3.5 mph - 0.01 in Rain Light Rain
3:39 AM 37.0 °F 34.5 °F 36.0 °F 96% 30.12 in 3.0 mi North 3.5 mph - 0.05 in Rain Rain
3:46 AM 37.0 °F 34.5 °F 36.0 °F 96% 30.12 in 2.5 mi North 3.5 mph - 0.07 in Rain Rain
3:54 AM 37.0 °F 34.5 °F 36.0 °F 96% 30.12 in 3.0 mi North 3.5 mph - 0.08 in Rain Rain
4:04 AM 37.9 °F 34.4 °F 36.0 °F 93% 30.10 in 3.0 mi North 4.6 mph - 0.01 in Rain Rain
4:54 AM 37.0 °F 33.3 °F 36.0 °F 96% 30.09 in 4.0 mi North 4.6 mph - 0.08 in Rain Rain
5:54 AM 37.9 °F 35.5 °F 36.0 °F 93% 30.06 in 4.0 mi North 3.5 mph - 0.08 in Rain Light Rain
6:22 AM 37.9 °F 34.4 °F 36.0 °F 93% 30.03 in 2.0 mi North 4.6 mph - 0.02 in Rain Light Rain
7:23 AM 37.9 °F 33.5 °F 36.0 °F 93% 29.99 in 1.8 mi NNW 5.8 mph - 0.05 in Rain Rain
7:26 AM 37.9 °F 33.5 °F 36.0 °F 93% 29.99 in 2.0 mi North 5.8 mph - 0.06 in Rain Light Rain
7:34 AM 37.9 °F 33.5 °F 36.0 °F 93% 29.98 in 2.0 mi North 5.8 mph - 0.07 in Rain Rain
7:42 AM 37.9 °F 33.5 °F 36.0 °F 93% 29.97 in 1.8 mi North 5.8 mph - 0.08 in Rain Light Rain
7:52 AM 37.4 °F 34.9 °F 37.4 °F 100% 29.97 in 2.0 mi Variable 3.5 mph - 0.09 in Rain Light Rain
7:54 AM 37.9 °F 34.4 °F 37.0 °F 97% 29.99 in 2.0 mi NNW 4.6 mph - 0.09 in Rain Light Rain
8:10 AM 39.0 °F 34.8 °F 37.0 °F 93% 29.96 in 1.5 mi NNW 5.8 mph - 0.02 in Rain Light Rain
8:20 AM 37.9 °F 32.7 °F 37.0 °F 97% 29.95 in 2.0 mi North 6.9 mph - 0.04 in Rain Light Rain
8:31 AM 37.9 °F 32.7 °F 37.0 °F 97% 29.95 in 3.0 mi NNW 6.9 mph - 0.07 in Rain Rain
8:54 AM 39.0 °F 34.0 °F 37.0 °F 93% 29.95 in 4.0 mi North 6.9 mph - 0.11 in Rain Light Rain
9:14 AM 39.9 °F 35.8 °F 37.9 °F 93% 29.92 in 3.0 mi NNW 5.8 mph - 0.01 in Rain Light Rain
9:29 AM 41.0 °F 38.0 °F 39.0 °F 93% 29.91 in 2.5 mi North 4.6 mph - 0.01 in Rain Light Rain
9:54 AM 42.1 °F 37.7 °F 39.9 °F 92% 29.91 in 2.5 mi North 6.9 mph - 0.01 in   Overcast
11:11 AM 44.1 °F 40.1 °F 41.0 °F 89% 29.83 in 4.0 mi North 6.9 mph - N/A   Overcast
11:24 AM 44.1 °F 41.5 °F 41.0 °F 89% 29.83 in 10.0 mi North 4.6 mph - N/A   Overcast
11:35 AM 44.1 °F 40.8 °F 41.0 °F 89% 29.82 in 8.0 mi NNW 5.8 mph - N/A   Overcast
11:54 AM 45.0 °F 41.8 °F 42.1 °F 90% 29.83 in 4.0 mi North 5.8 mph - N/A   Overcast
12:51 PM 46.4 °F 45.2 °F 42.8 °F 87% 29.80 in 8.0 mi North 3.5 mph - N/A   Overcast
12:54 PM 48.0 °F - 42.1 °F 80% 29.81 in 8.0 mi Variable 3.5 mph - N/A   Overcast
1:18 PM 48.9 °F - 44.1 °F 83% 29.77 in 10.0 mi Variable 4.6 mph - N/A   Overcast
1:27 PM 50.0 °F - 43.0 °F 77% 29.78 in 10.0 mi Variable 3.5 mph - N/A   Overcast
1:54 PM 51.1 °F - 44.1 °F 77% 29.77 in 10.0 mi Variable 3.5 mph - N/A   Overcast
2:54 PM 53.1 °F - 44.1 °F 71% 29.74 in 10.0 mi NE 3.5 mph - N/A   Overcast
3:19 PM 54.0 °F - 45.0 °F 72% 29.71 in 10.0 mi Variable 3.5 mph - N/A   Overcast
3:40 PM 55.9 °F - 46.0 °F 69% 29.70 in 10.0 mi Calm Calm - N/A   Scattered Clouds
3:54 PM 57.0 °F - 46.0 °F 67% 29.70 in 10.0 mi NE 6.9 mph - N/A   Scattered Clouds
4:06 PM 57.0 °F - 46.0 °F 67% 29.69 in 10.0 mi Variable 4.6 mph - N/A   Mostly Cloudy
4:15 PM 57.0 °F - 46.0 °F 67% 29.69 in 10.0 mi Calm Calm - N/A   Scattered Clouds
5:54 PM 60.1 °F - 48.0 °F 64% 29.67 in 10.0 mi Calm Calm - N/A   Clear
6:54 PM 60.1 °F - 48.0 °F 64% 29.66 in 10.0 mi NNE 3.5 mph - N/A   Clear
7:54 PM 55.0 °F - 48.0 °F 77% 29.68 in 10.0 mi Calm Calm - N/A   Partly Cloudy
8:54 PM 50.0 °F - 48.0 °F 93% 29.69 in 10.0 mi Calm Calm - 0.00 in Rain Light Rain
9:54 PM 48.0 °F - 46.9 °F 96% 29.70 in 10.0 mi Calm Calm - 0.00 in   Scattered Clouds
10:54 PM 48.9 °F - 48.0 °F 97% 29.70 in 3.0 mi Calm Calm - 0.07 in Rain Light Rain
11:44 PM 46.9 °F - 46.0 °F 97% 29.68 in 1.8 mi Calm Calm - 0.00 in   Mostly Cloudy
11:54 PM 48.0 °F - 46.9 °F 96% 29.69 in 2.5 mi Calm Calm - 0.00 in   Mostly Cloudy